Wind_Speed
16 15 9 9 3 5 7 11 19 23 23 24 24 22 22 21 21 19 16 17 15 12 11 12 14 17 21 24 27 29 29 28 16 9 3 3 3 1 6 7 10 12 11 14 17 20 24 27 28
17 13 7 8 7 10 12 17 19 20 22 22 21 20 19 20 20 19 19 18 19 18 17 18 18 21 26 30 31 30 22 17 13 7 3 1 6 4 6 10 14 15 12 17 20 23 28 25 31
12 13 12 5 13 11 11 13 18 17 21 24 23 19 17 15 13 12 12 14 17 18 19 18 19 20 22 22 22 23 24 22 17 13 10 4 9 4 3 11 14 13 18 20 23 26 27 23 30
10 9 1 6 8 11 11 18 15 25 29 30 31 24 19 16 14 14 14 14 10 9 9 11 12 13 16 18 20 22 23 21 16 12 8 11 15 9 9 13 14 19 21 21 24 26 26 25 29
10 8 2 10 11 11 19 19 25 31 33 36 41 45 35 32 26 26 28 30 29 28 26 23 21 22 23 23 21 15 10 10 11 11 10 13 16 13 16 15 21 22 21 23 24 26 27 26 29
9 8 15 11 10 19 16 21 28 34 36 37 44 48 48 40 36 31 31 28 26 25 23 24 29 31 31 30 23 18 12 5 6 10 15 17 17 18 20 23 27 23 24 25 27 29 28 28 26
3 7 12 7 16 17 17 26 26 29 34 36 36 41 43 51 45 34 30 30 29 28 28 28 31 34 37 33 25 21 21 15 17 20 22 22 23 24 31 35 29 27 26 29 31 29 31 29 25
6 9 7 13 14 17 21 23 24 26 31 35 34 36 39 44 44 47 44 39 37 33 33 33 36 37 39 39 33 28 28 24 26 29 28 27 29 39 40 35 35 30 29 31 31 29 29 25 23
3 1 6 14 12 21 21 20 21 24 28 29 31 32 34 36 37 41 44 44 45 45 41 36 37 38 39 39 40 37 32 30 33 35 32 36 42 41 36 37 31 31 33 30 27 25 26 24 25
7 9 18 16 18 25 19 18 19 22 24 27 30 32 33 33 32 34 37 40 43 43 44 43 40 39 40 40 41 38 37 36 37 39 41 42 41 35 36 33 28 29 29 27 22 21 22 20 19
11 20 18 16 21 18 17 16 16 18 20 22 23 25 28 30 33 29 30 33 36 39 42 43 41 41 39 40 40 39 42 43 40 39 41 40 36 34 31 26 25 25 22 22 25 22 19 15 15
16 18 17 14 14 15 15 13 12 13 15 17 19 22 22 24 29 30 31 28 29 32 35 38 39 37 39 38 37 37 38 39 37 39 36 35 33 28 23 22 20 18 18 17 22 20 17 14 15
15 14 14 12 12 13 12 11 11 11 13 14 16 20 20 20 22 24 25 28 28 26 28 31 34 33 33 35 35 31 29 28 29 28 26 26 23 19 16 16 14 12 10 12 16 17 14 9 6
12 8 8 10 11 8 6 6 5 6 9 14 14 20 20 18 17 17 20 24 26 26 24 27 30 32 28 28 30 32 27 21 20 16 15 13 11 10 6 5 4 3 5 6 7 6 11 13 6
13 10 8 9 8 7 5 4 3 1 8 13 14 16 17 16 15 15 16 17 20 22 22 23 26 26 27 24 26 26 25 24 21 14 10 7 6 3 3 3 6 6 7 7 7 4 8 12 9
14 14 12 8 6 8 6 7 6 8 11 14 15 16 19 15 16 13 16 19 15 15 19 23 22 22 24 21 21 23 22 19 17 17 16 10 7 5 4 5 6 7 9 8 9 12 17 14 10
17 16 16 17 14 14 14 15 14 15 15 18 19 15 16 17 15 11 15 17 16 16 11 17 18 16 20 21 20 21 24 22 16 13 11 10 8 7 7 9 7 6 5 5 11 9 9 8 10
19 19 16 19 20 20 19 20 18 18 20 18 20 21 17 17 15 15 16 18 13 16 13 13 13 9 11 14 17 19 24 23 19 16 10 9 9 4 5 5 6 7 6 6 7 12 12 13 14
22 21 25 25 25 25 22 22 22 22 24 22 21 19 19 20 19 19 19 18 12 11 14 15 12 9 10 12 15 16 19 24 23 12 14 15 11 16 11 7 6 6 9 10 10 9 13 15 14
26 29 29 29 28 26 26 26 26 27 25 25 23 24 21 23 20 20 24 25 19 15 17 18 17 14 14 11 11 13 20 21 19 23 27 20 14 18 18 14 12 13 14 14 13 10 9 12 14
30 29 30 31 29 30 32 31 32 30 28 29 28 26 24 28 26 24 25 27 28 20 16 21 22 18 19 17 17 19 19 23 22 28 31 29 26 21 21 21 20 18 21 18 17 17 15 16 15
42 41 40 36 33 33 34 36 39 38 35 33 31 28 32 34 36 36 32 29 30 31 29 25 29 27 29 29 28 29 29 24 28 34 36 33 32 30 28 24 22 24 29 24 19 21 22 19 23
44 44 42 40 38 40 39 37 34 36 35 34 34 33 35 38 40 34 35 35 33 34 36 32 33 34 34 35 34 31 35 41 38 37 34 31 31 29 31 33 34 33 34 37 36 31 28 27 29
53 50 48 45 43 41 42 44 39 45 44 42 42 40 40 42 44 42 40 39 38 36 38 39 39 39 42 38 37 40 48 41 37 30 32 37 34 37 38 41 42 44 45 44 43 42 42 42 38
55 54 51 49 49 49 48 52 48 47 46 47 47 46 44 43 47 49 44 42 44 44 43 42 43 44 40 36 44 41 40 45 33 34 38 36 37 40 39 43 50 44 46 48 48 50 43 45 45
62 61 59 56 55 55 52 55 59 61 63 56 47 48 50 52 44 44 45 43 41 37 35 36 39 38 41 46 34 31 35 33 36 39 36 36 35 34 35 41 48 50 52 51 52 53 52 51 52
60 63 66 65 62 61 60 61 64 65 65 67 67 65 56 58 60 62 54 49 51 51 53 53 48 51 48 32 29 35 35 33 38 39 41 45 40 40 52 61 63 61 61 61 61 61 60 59 58
64 64 64 65 65 65 63 64 68 70 69 70 71 72 71 70 65 63 64 69 65 63 58 56 54 41 40 35 33 33 50 35 52 45 43 52 52 61 60 61 66 68 70 69 67 69 68 66 64
56 57 60 62 62 64 64 65 68 71 70 73 75 76 77 79 78 75 74 73 71 68 63 57 50 41 37 42 47 45 55 42 56 45 50 57 55 60 67 68 73 78 81 78 75 72 74 71 66
46 45 47 47 49 52 53 50 61 65 69 71 73 75 76 78 79 79 77 78 79 79 74 54 49 52 51 56 61 63 53 75 66 63 71 68 68 72 73 74 82 82 79 77 79 77 77 80 79
Wind_Direction
157 150 81 58 38 313 330 325 337 338 332 340 344 337 331 324 321 318 318 315 307 292 287 279 274 282 287 291 289 290 292 296 294 297 257 151 141 129 64 64 91 85 74 94 82 72 73 82 75
171 170 105 44 3 335 348 348 355 345 353 4 1 350 339 330 323 313 310 309 303 294 289 284 288 294 295 298 301 299 296 292 292 278 249 102 129 153 57 80 89 84 94 95 82 81 92 83 83
152 184 205 261 308 323 2 17 12 23 44 42 33 16 0 350 350 346 335 312 299 292 294 300 306 312 312 311 309 304 292 287 276 271 242 210 140 186 75 99 95 95 104 90 91 93 94 86 90
156 157 97 260 343 26 41 46 60 69 60 55 51 43 32 29 26 27 21 16 2 360 12 19 17 5 343 330 319 305 293 281 268 252 228 196 173 208 166 110 103 107 102 103 100 106 96 97 94
137 127 145 42 40 60 77 76 78 72 65 57 55 53 53 53 54 56 56 58 62 63 64 57 43 29 13 4 353 344 319 278 249 228 193 176 187 191 152 121 113 114 109 103 102 103 97 95 94
122 79 39 51 73 90 85 89 80 72 63 58 55 58 56 54 59 61 60 59 64 61 57 54 40 31 27 20 21 19 13 37 132 155 169 162 159 149 140 123 121 112 104 96 101 99 96 93 92
52 35 38 61 99 96 97 93 82 71 65 60 57 57 57 59 61 63 64 65 65 62 59 49 46 38 30 29 33 45 53 68 104 128 136 142 137 129 124 120 110 104 100 100 102 98 93 92 93
30 350 7 114 110 112 111 93 82 74 66 62 58 57 55 57 62 63 63 64 64 63 59 58 54 43 42 38 40 54 68 86 106 117 122 119 116 119 119 116 106 103 103 102 105 101 93 95 94
64 8 113 118 112 120 112 99 83 75 70 64 58 59 56 57 54 61 62 61 61 64 63 62 58 49 46 45 49 56 69 88 102 107 106 111 115 116 118 109 107 106 98 100 98 101 101 97 99
113 125 131 119 115 125 109 102 84 70 66 60 58 56 58 56 56 54 57 56 56 56 59 60 59 56 53 52 57 64 75 87 96 105 111 113 116 117 117 108 106 107 95 90 101 101 104 93 82
124 130 129 130 128 127 112 105 82 72 68 66 56 48 48 51 53 54 56 55 54 57 53 53 55 57 57 61 64 72 87 95 100 106 111 115 116 115 115 112 113 111 87 85 93 102 98 100 80
137 137 142 134 134 130 116 100 86 70 64 53 48 41 44 46 48 49 51 48 51 49 53 46 48 54 57 64 72 76 94 98 102 110 113 116 115 115 116 115 118 97 90 93 91 96 87 78 83
127 136 148 136 145 134 117 102 72 50 32 28 27 25 30 34 43 44 45 47 49 44 47 48 46 49 56 60 70 80 84 88 102 106 110 112 114 110 88 117 123 105 85 77 104 93 75 72 80
158 137 141 153 145 154 139 113 59 35 11 4 16 20 18 18 23 41 48 48 46 45 41 42 41 43 50 57 63 68 71 77 87 98 101 105 103 117 106 67 20 359 355 22 65 90 60 51 60
160 190 206 188 183 186 202 191 181 332 349 347 348 358 8 15 17 29 46 41 43 44 38 36 32 39 42 53 53 57 60 64 70 80 86 79 54 60 178 260 296 302 308 314 358 359 360 338 355
192 204 226 230 210 213 236 231 258 290 313 318 323 333 343 356 356 29 22 28 34 37 41 26 26 32 30 46 60 58 54 48 51 64 72 63 44 20 351 329 319 332 300 280 304 307 329 333 330
209 211 226 242 246 257 262 269 284 297 304 311 315 318 322 334 343 351 352 13 38 23 25 39 26 21 28 40 50 52 44 37 38 26 27 59 72 66 40 25 5 323 322 280 283 314 17 3 325
227 229 230 241 251 256 259 270 281 289 296 299 306 310 310 319 326 325 334 347 8 32 9 13 28 43 24 20 34 41 24 27 15 28 3 343 343 29 64 26 5 356 349 352 351 3 10 27 33
240 238 244 241 248 252 251 263 272 279 285 283 296 291 295 304 309 314 317 318 318 351 3 360 1 26 14 10 357 4 9 0 4 352 340 340 311 301 283 290 304 316 307 314 326 338 347 350 352
239 242 251 250 256 262 262 266 270 267 272 276 283 282 287 295 300 299 303 302 305 316 329 342 346 335 327 322 333 336 340 338 339 342 331 318 291 312 288 274 269 278 283 287 292 286 301 314 325
242 241 248 252 258 261 264 259 266 261 268 266 270 268 273 285 279 285 287 292 292 293 303 316 325 321 323 292 293 299 317 328 322 322 317 307 300 281 287 268 272 270 267 262 277 279 295 296 293
252 253 255 250 252 259 262 261 269 263 262 264 264 268 271 268 273 278 275 282 286 284 287 294 308 312 318 308 295 299 300 310 308 307 311 307 298 284 286 262 261 268 278 280 268 274 277 278 286
253 255 256 256 256 256 255 255 251 255 268 272 272 270 268 269 271 273 270 276 280 279 286 291 300 304 310 301 299 298 307 306 306 305 298 296 287 275 273 272 271 265 272 276 277 273 267 271 278
250 252 256 259 255 255 253 248 254 259 264 263 267 272 273 269 270 269 267 275 276 279 285 288 292 296 299 293 296 296 306 304 302 288 278 288 288 271 281 267 268 269 272 278 274 273 276 281 280
254 255 256 254 253 255 251 253 246 252 255 258 260 264 267 264 265 268 269 264 271 278 280 282 280 281 279 292 305 306 310 305 290 291 286 283 284 281 285 275 269 274 271 275 276 272 271 283 285
253 255 256 257 260 259 252 250 258 253 260 257 250 250 242 251 257 260 262 262 254 263 266 269 265 283 282 305 309 308 301 296 287 285 283 277 277 263 272 255 273 271 270 268 268 272 277 281 281
257 256 255 254 256 257 259 258 261 258 258 260 259 254 253 249 253 257 254 253 254 257 259 264 268 281 292 292 296 270 274 278 281 274 271 271 274 267 266 262 270 269 269 268 265 263 269 272 275
258 258 258 257 256 257 257 257 258 261 260 261 262 261 258 255 253 251 252 254 257 261 266 270 279 281 276 275 273 276 281 277 272 264 265 274 271 272 270 265 268 269 267 267 269 270 268 271 270
261 261 261 261 260 258 259 260 258 259 260 262 263 264 264 264 260 257 258 260 263 265 266 273 277 273 270 281 274 274 277 250 260 255 252 246 250 259 259 260 260 263 266 270 270 271 273 270 271
266 265 264 264 263 264 261 261 262 262 261 262 263 264 266 267 268 268 267 265 265 265 267 258 252 258 233 245 262 259 252 255 260 243 251 254 249 256 252 257 258 260 261 264 271 275 273 274 273
Height
11006 11009 11012 11015 11015 11014 11014 11013 11011 11007 11003 10999 10994 10990 10986 10983 10981 10979 10978 10976 10975 10974 10974 10973 10972 10971 10968 10967 10965 10962 10960 10959 10958 10957 10958 10959 10959 10958 10958 10959 10960 10962 10962 10963 10963 10964 10964 10963 10961
11009 11012 11015 11016 11017 11016 11014 11012 11010 11007 11002 10997 10993 10989 10985 10982 10979 10977 10976 10975 10973 10972 10971 10970 10970 10969 10965 10961 10957 10954 10951 10951 10952 10954 10956 10958 10958 10958 10959 10959 10962 10963 10963 10966 10966 10966 10966 10965 10964
11012 11015 11017 11018 11018 11016 11015 11012 11010 11008 11004 11000 10994 10988 10985 10982 10978 10976 10974 10972 10971 10970 10969 10968 10967 10964 10960 10955 10951 10947 10945 10944 10947 10949 10952 10954 10956 10957 10959 10961 10963 10964 10968 10968 10967 10967 10968 10969 10967
11015 11018 11020 11021 11019 11016 11014 11013 11012 11009 11006 11002 10997 10991 10987 10981 10978 10976 10974 10972 10970 10969 10968 10967 10966 10965 10960 10955 10949 10944 10940 10938 10940 10945 10947 10950 10954 10956 10959 10963 10965 10968 10970 10969 10969 10970 10971 10971 10969
11017 11019 11021 11020 11019 11018 11016 11016 11015 11011 11009 11006 11000 10994 10988 10984 10980 10979 10977 10975 10972 10971 10972 10971 10968 10965 10960 10954 10947 10941 10937 10934 10937 10940 10945 10947 10951 10956 10961 10964 10968 10971 10971 10971 10972 10973 10974 10974 10973
11017 11019 11019 11020 11021 11019 11019 11018 11016 11014 11011 11008 11004 10999 10995 10990 10985 10984 10982 10980 10978 10977 10975 10972 10970 10965 10960 10952 10946 10940 10936 10934 10935 10939 10943 10947 10952 10957 10962 10967 10971 10973 10974 10975 10976 10977 10977 10978 10978
11017 11019 11021 11021 11020 11020 11021 11021 11019 11017 11014 11012 11009 11007 11002 10997 10994 10991 10987 10984 10982 10980 10978 10975 10972 10968 10962 10955 10948 10941 10936 10935 10936 10940 10946 10950 10955 10960 10965 10971 10975 10977 10977 10976 10979 10980 10981 10982 10983
11018 11020 11021 11022 11021 11022 11023 11022 11022 11020 11017 11015 11014 11012 11008 11004 11002 10998 10994 10990 10988 10985 10982 10980 10976 10973 10967 10960 10953 10944 10939 10939 10940 10946 10952 10957 10961 10966 10972 10976 10978 10979 10980 10981 10982 10984 10984 10986 10986
11020 11021 11022 11023 11023 11024 11024 11024 11024 11023 11021 11019 11018 11017 11013 11010 11008 11004 11000 10998 10994 10990 10987 10984 10981 10978 10972 10967 10959 10952 10949 10949 10951 10955 10960 10964 10969 10975 10978 10981 10983 10984 10985 10987 10987 10987 10988 10988 10989
11021 11022 11024 11025 11025 11026 11025 11027 11027 11025 11024 11023 11022 11021 11018 11015 11012 11009 11007 11004 11000 10997 10994 10990 10987 10984 10980 10974 10968 10963 10961 10961 10963 10965 10969 10973 10977 10980 10983 10985 10987 10989 10989 10989 10989 10990 10991 10991 10991
11022 11024 11026 11027 11028 11028 11028 11027 11028 11027 11027 11026 11025 11024 11022 11019 11017 11014 11012 11009 11006 11004 11000 10998 10995 10991 10988 10983 10979 10976 10974 10974 10975 10976 10979 10981 10983 10986 10988 10990 10991 10993 10994 10994 10993 10994 10994 10994 10994
11023 11025 11026 11027 11028 11029 11029 11029 11028 11030 11030 11029 11027 11026 11025 11023 11022 11019 11016 11014 11012 11009 11007 11005 11002 10998 10995 10992 10989 10988 10987 10986 10986 10987 10988 10989 10991 10992 10993 10994 10995 10997 10997 10997 10997 10997 10996 10996 10995
11025 11025 11027 11027 11029 11030 11030 11030 11029 11031 11031 11031 11029 11028 11026 11025 11023 11022 11020 11018 11015 11014 11013 11011 11008 11005 11001 10999 10997 10997 10998 10997 10996 10996 10997 10998 10998 10999 10999 10999 10999 11000 11000 11001 11000 10999 10998 10997 10997
11026 11026 11027 11028 11028 11029 11030 11030 11031 11030 11031 11031 11031 11029 11028 11027 11025 11023 11023 11020 11018 11017 11016 11015 11013 11010 11007 11004 11003 11002 11002 11003 11004 11004 11003 11002 11002 11002 11003 11004 11003 11003 11002 11002 11001 11001 10999 10999 10998
11025 11026 11027 11029 11030 11029 11029 11029 11029 11030 11030 11029 11030 11029 11029 11028 11027 11024 11023 11022 11020 11019 11019 11017 11016 11014 11012 11010 11008 11005 11005 11005 11007 11008 11006 11006 11005 11004 11004 11003 11003 11003 11002 11001 11000 11000 11000 10999 10998
11024 11025 11027 11028 11029 11030 11030 11031 11029 11029 11030 11029 11028 11028 11027 11028 11027 11025 11024 11024 11022 11021 11019 11019 11018 11016 11015 11013 11010 11011 11010 11010 11009 11009 11009 11009 11007 11005 11004 11003 11002 11001 11001 11000 11000 10999 10999 10996 10995
11022 11025 11025 11024 11026 11028 11029 11028 11029 11028 11028 11028 11026 11026 11026 11026 11026 11025 11024 11024 11023 11021 11020 11019 11018 11017 11016 11015 11014 11013 11013 11012 11012 11011 11010 11009 11009 11008 11005 11003 11001 11001 11000 11000 10999 10998 10997 10995 10993
11019 11020 11023 11023 11024 11025 11026 11026 11026 11027 11027 11026 11025 11023 11023 11023 11024 11023 11022 11023 11021 11021 11021 11019 11018 11017 11017 11016 11015 11013 11012 11013 11012 11009 11010 11010 11009 11008 11005 11004 11003 11002 11001 10999 10998 10996 10995 10995 10993
11016 11017 11018 11021 11021 11022 11021 11022 11022 11023 11022 11022 11021 11020 11020 11021 11020 11019 11019 11020 11020 11017 11018 11018 11016 11015 11014 11014 11014 11013 11013 11012 11011 11010 11008 11007 11007 11006 11005 11003 11002 11001 11001 11000 10998 10996 10994 10992 10993
11012 11013 11014 11015 11015 11016 11017 11017 11016 11016 11017 11016 11016 11016 11015 11015 11015 11016 11015 11016 11017 11015 11013 11013 11014 11013 11013 11012 11011 11011 11010 11010 11009 11008 11008 11005 11002 11002 11002 10999 10997 10996 10996 10997 10997 10996 10994 10992 10991
11006 11008 11008 11010 11011 11011 11011 11011 11010 11010 11010 11010 11010 11011 11011 11009 11010 11011 11012 11011 11011 11011 11010 11009 11009 11010 11010 11010 11008 11006 11006 11004 11002 11002 11001 11001 10999 10996 10995 10994 10992 10992 10991 10991 10991 10991 10992 10992 10990
10999 11000 11001 11004 11004 11004 11005 11005 11004 11003 11002 11003 11003 11005 11005 11004 11004 11005 11005 11006 11005 11004 11004 11004 11004 11004 11004 11006 11005 11004 11003 11001 10998 10995 10993 10993 10992 10990 10990 10989 10989 10988 10987 10987 10986 10986 10985 10984 10984
10990 10991 10992 10995 10997 10998 10998 10998 10998 10997 10996 10995 10995 10994 10995 10996 10997 10997 10997 10998 10998 10996 10996 10996 10996 10997 10998 10998 10996 10995 10996 10993 10992 10990 10987 10986 10985 10984 10983 10981 10983 10982 10981 10981 10982 10980 10979 10980 10978
10980 10981 10983 10984 10986 10989 10989 10987 10988 10987 10988 10987 10986 10986 10985 10986 10986 10986 10987 10988 10989 10988 10988 10988 10988 10988 10991 10990 10988 10986 10983 10980 10979 10979 10977 10976 10977 10976 10974 10972 10970 10971 10973 10972 10972 10972 10972 10972 10972
10968 10971 10972 10973 10973 10978 10981 10975 10978 10975 10975 10975 10976 10977 10976 10976 10977 10977 10977 10978 10979 10978 10979 10980 10979 10979 10980 10981 10978 10973 10972 10970 10969 10969 10969 10967 10967 10966 10963 10960 10959 10961 10962 10961 10961 10961 10961 10962 10964
10958 10959 10962 10963 10965 10963 10970 10966 10957 10962 10958 10960 10964 10966 10966 10967 10966 10967 10968 10968 10970 10969 10969 10970 10970 10971 10972 10969 10966 10964 10963 10962 10960 10957 10955 10955 10956 10957 10955 10950 10947 10948 10947 10948 10948 10949 10951 10952 10952
10944 10943 10946 10952 10952 10953 10952 10954 10945 10945 10946 10944 10946 10951 10954 10954 10955 10957 10954 10957 10958 10960 10961 10963 10965 10965 10964 10960 10958 10956 10953 10952 10947 10946 10943 10942 10945 10944 10945 10941 10934 10932 10931 10932 10933 10934 10938 10939 10941
10926 10929 10932 10934 10937 10939 10939 10939 10934 10927 10931 10929 10928 10929 10932 10937 10940 10941 10944 10942 10946 10949 10950 10952 10954 10955 10953 10951 10948 10945 10942 10943 10946 10939 10937 10928 10930 10927 10926 10925 10921 10916 10913 10913 10916 10916 10920 10924 10926
10914 10914 10913 10915 10917 10920 10923 10920 10916 10914 10912 10912 10912 10910 10911 10913 10919 10926 10928 10927 10930 10933 10939 10943 10940 10941 10941 10929 10938 10936 10934 10938 10932 10925 10922 10918 10912 10911 10908 10905 10901 10901 10900 10900 10899 10898 10898 10903 10906
10899 10899 10898 10900 10901 10902 10904 10906 10897 10896 10897 10897 10896 10894 10895 10895 10898 10901 10908 10909 10909 10913 10919 10925 10925 10924 10922 10921 10921 10922 10927 10920 10919 10911 10905 10903 10899 10896 10889 10886 10884 10882 10882 10883 10884 10880 10881 10880 10883